Location: Hains Lake
(37.8540°N, 99.8578°W)
Time: 19:07:08
(UTC+00:00)

STARLINK 1062 - Pass Details

Date: 11 December 2019
Orbit: 548 x 551 km, 53.0° (Epoch: 18 January)

Event Time Altitude Azimuth Distance (km) Brightness Sun altitude
Exits shadow 12:33:01 21° 306° (NW) 1,273 4.9 -13.8°
Maximum altitude 12:35:43 75° 224° (SW) 584 3.6 -13.3°
Drops below altitude 10° 12:39:54 10° 139° (SE) 1,843 7.3 -12.5°
Sets 12:42:08 0° 138° (SE) 2,735 8.4 -12.1°
